owner,sensor,date,latitude,longitude,vertical_datum,wind_speed,wind_to_direction,wind_speed_of_gust,qcFlag 
NOS,ioos:station:wmo:fpst2:1,2018-10-01T00:00:00Z,28.9360,-95.2940,15.0,3.0,352.0,4.2,'11111222,11111222,11111222' 
NOS,ioos:station:wmo:fpst2:1,2018-10-01T00:06:00Z,28.9360,-95.2940,15.0,3.3,351.0,3.9,'11111222,11111222,11111222' 
NOS,ioos:station:wmo:fpst2:1,2018-10-01T00:12:00Z,28.9360,-95.2940,15.0,4.2,5.0,4.9,'11111222,11111222,11111222' 
NOS,ioos:station:wmo:fpst2:1,2018-10-01T00:18:00Z,28.9360,-95.2940,15.0,3.7,5.0,4.4,'11111222,11111222,11111222' 
NOS,ioos:station:wmo:fpst2:1,2018-10-01T00:24:00Z,28.9360,-95.2940,15.0,3.9,5.0,5.1,'11111222,11111222,11111222' 
NOS,ioos:station:wmo:fpst2:1,2018-10-01T00:30:00Z,28.9360,-95.2940,15.0,3.8,4.0,4.7,'11111222,11111222,11111222' 
NOS,ioos:station:wmo:fpst2:1,2018-10-01T00:36:00Z,28.9360,-95.2940,15.0,4.0,22.0,4.5,'11111222,11111222,11111222' 
NOS,ioos:station:wmo:fpst2:1,2018-10-01T00:42:00Z,28.9360,-95.2940,15.0,4.0,20.0,4.7,'11111222,11111222,11111222' 
NOS,ioos:station:wmo:fpst2:1,2018-10-01T00:48:00Z,28.9360,-95.2940,15.0,3.1,24.0,4.3,'11111222,11111222,11111222' 
NOS,ioos:station:wmo:fpst2:1,2018-10-01T00:54:00Z,28.9360,-95.2940,15.0,3.4,19.0,3.8,'11111222,11111222,11111222' 
NOS,ioos:station:wmo:fpst2:1,2018-10-01T01:00:00Z,28.9360,-95.2940,15.0,3.9,20.0,4.5,'11111222,11111222,11111222' 
NOS,ioos:station:wmo:fpst2:1,2018-10-01T01:06:00Z,28.9360,-95.2940,15.0,3.8,12.0,4.3,'11111222,11111222,11111222' 
NOS,ioos:station:wmo:fpst2:1,2018-10-01T01:12:00Z,28.9360,-95.2940,15.0,4.1,13.0,4.7,'11111222,11111222,11111222' 
NOS,ioos:station:wmo:fpst2:1,2018-10-01T01:18:00Z,28.9360,-95.2940,15.0,4.2,16.0,4.6,'11111222,11111222,11111222' 
NOS,ioos:station:wmo:fpst2:1,2018-10-01T01:24:00Z,28.9360,-95.2940,15.0,4.6,11.0,5.0,'11111222,11111222,11111222' 
NOS,ioos:station:wmo:fpst2:1,2018-10-01T01:30:00Z,28.9360,-95.2940,15.0,5.0,18.0,5.6,'11111222,11111222,11111222' 
NOS,ioos:station:wmo:fpst2:1,2018-10-01T01:36:00Z,28.9360,-95.2940,15.0,5.1,19.0,5.8,'11111222,11111222,11111222' 
NOS,ioos:station:wmo:fpst2:1,2018-10-01T01:42:00Z,28.9360,-95.2940,15.0,4.6,19.0,5.8,'11111222,11111222,11111222' 
NOS,ioos:station:wmo:fpst2:1,2018-10-01T01:48:00Z,28.9360,-95.2940,15.0,4.4,16.0,5.1,'11111222,11111222,11111222' 
NOS,ioos:station:wmo:fpst2:1,2018-10-01T01:54:00Z,28.9360,-95.2940,15.0,3.5,9.0,5.0,'11111222,11111222,11111222' 
NOS,ioos:station:wmo:fpst2:1,2018-10-01T02:00:00Z,28.9360,-95.2940,15.0,3.9,10.0,5.1,'11111222,11111222,11111222' 
NOS,ioos:station:wmo:fpst2:1,2018-10-01T02:06:00Z,28.9360,-95.2940,15.0,3.3,4.0,4.3,'11111222,11111222,11111222' 
NOS,ioos:station:wmo:fpst2:1,2018-10-01T02:12:00Z,28.9360,-95.2940,15.0,3.1,345.0,4.1,'11111222,11111222,11111222' 
NOS,ioos:station:wmo:fpst2:1,2018-10-01T02:18:00Z,28.9360,-95.2940,15.0,3.6,348.0,4.1,'11111222,11111222,11111222' 
NOS,ioos:station:wmo:fpst2:1,2018-10-01T02:24:00Z,28.9360,-95.2940,15.0,3.7,338.0,5.0,'11111222,11111222,11111222' 
NOS,ioos:station:wmo:fpst2:1,2018-10-01T02:30:00Z,28.9360,-95.2940,15.0,4.6,340.0,5.2,'11111222,11111222,11111222' 
NOS,ioos:station:wmo:fpst2:1,2018-10-01T02:36:00Z,28.9360,-95.2940,15.0,4.3,343.0,5.5,'11111222,11111222,11111222' 
NOS,ioos:station:wmo:fpst2:1,2018-10-01T02:42:00Z,28.9360,-95.2940,15.0,4.5,342.0,6.2,'11111222,11111222,11111222' 
NOS,ioos:station:wmo:fpst2:1,2018-10-01T02:48:00Z,28.9360,-95.2940,15.0,4.0,339.0,5.7,'11111222,11111222,11111222' 
NOS,ioos:station:wmo:fpst2:1,2018-10-01T02:54:00Z,28.9360,-95.2940,15.0,4.9,345.0,6.5,'11111222,11111222,11111222' 
NOS,ioos:station:wmo:fpst2:1,2018-10-01T03:00:00Z,28.9360,-95.2940,15.0,4.8,343.0,5.8,'11111222,11111222,11111222' 
NOS,ioos:station:wmo:fpst2:1,2018-10-01T03:06:00Z,28.9360,-95.2940,15.0,4.0,353.0,6.3,'11111222,11111222,11111222' 
NOS,ioos:station:wmo:fpst2:1,2018-10-01T03:12:00Z,28.9360,-95.2940,15.0,4.6,356.0,5.7,'11111222,11111222,11111222' 
NOS,ioos:station:wmo:fpst2:1,2018-10-01T03:18:00Z,28.9360,-95.2940,15.0,4.5,357.0,5.6,'11111222,11111222,11111222' 
NOS,ioos:station:wmo:fpst2:1,2018-10-01T03:24:00Z,28.9360,-95.2940,15.0,3.5,352.0,5.4,'11111222,11111222,11111222' 
NOS,ioos:station:wmo:fpst2:1,2018-10-01T03:30:00Z,28.9360,-95.2940,15.0,3.9,359.0,5.1,'11111222,11111222,11111222' 
NOS,ioos:station:wmo:fpst2:1,2018-10-01T03:36:00Z,28.9360,-95.2940,15.0,3.4,1.0,4.7,'11111222,11111222,11111222' 
NOS,ioos:station:wmo:fpst2:1,2018-10-01T03:42:00Z,28.9360,-95.2940,15.0,3.4,1.0,4.2,'11111222,11111222,11111222' 
NOS,ioos:station:wmo:fpst2:1,2018-10-01T03:48:00Z,28.9360,-95.2940,15.0,3.1,3.0,3.8,'11111222,11111222,11111222' 
NOS,ioos:station:wmo:fpst2:1,2018-10-01T03:54:00Z,28.9360,-95.2940,15.0,3.3,3.0,4.1,'11111222,11111222,11111222' 
NOS,ioos:station:wmo:fpst2:1,2018-10-01T04:00:00Z,28.9360,-95.2940,15.0,3.4,0.0,4.6,'11111222,11111222,11111222' 
NOS,ioos:station:wmo:fpst2:1,2018-10-01T04:06:00Z,28.9360,-95.2940,15.0,3.9,2.0,4.5,'11111222,11111222,11111222' 
NOS,ioos:station:wmo:fpst2:1,2018-10-01T04:12:00Z,28.9360,-95.2940,15.0,3.9,6.0,4.7,'11111222,11111222,11111222' 
NOS,ioos:station:wmo:fpst2:1,2018-10-01T04:18:00Z,28.9360,-95.2940,15.0,4.0,4.0,4.6,'11111222,11111222,11111222' 
NOS,ioos:station:wmo:fpst2:1,2018-10-01T04:24:00Z,28.9360,-95.2940,15.0,3.9,351.0,4.7,'11111222,11111222,11111222' 
NOS,ioos:station:wmo:fpst2:1,2018-10-01T04:30:00Z,28.9360,-95.2940,15.0,3.4,350.0,4.5,'11111222,11111222,11111222' 
NOS,ioos:station:wmo:fpst2:1,2018-10-01T04:36:00Z,28.9360,-95.2940,15.0,3.5,1.0,4.5,'11111222,11111222,11111222' 
NOS,ioos:station:wmo:fpst2:1,2018-10-01T04:42:00Z,28.9360,-95.2940,15.0,3.5,7.0,4.4,'11111222,11111222,11111222' 
NOS,ioos:station:wmo:fpst2:1,2018-10-01T04:48:00Z,28.9360,-95.2940,15.0,4.5,4.0,5.0,'11111222,11111222,11111222' 
NOS,ioos:station:wmo:fpst2:1,2018-10-01T04:54:00Z,28.9360,-95.2940,15.0,3.1,5.0,4.7,'11111222,11111222,11111222' 
NOS,ioos:station:wmo:fpst2:1,2018-10-01T05:00:00Z,28.9360,-95.2940,15.0,3.5,7.0,4.8,'11111222,11111222,11111222' 
NOS,ioos:station:wmo:fpst2:1,2018-10-01T05:06:00Z,28.9360,-95.2940,15.0,3.6,13.0,4.6,'11111222,11111222,11111222' 
NOS,ioos:station:wmo:fpst2:1,2018-10-01T05:12:00Z,28.9360,-95.2940,15.0,4.1,16.0,5.6,'11111222,11111222,11111222' 
NOS,ioos:station:wmo:fpst2:1,2018-10-01T05:18:00Z,28.9360,-95.2940,15.0,3.8,31.0,5.1,'11111222,11111222,11111222' 
NOS,ioos:station:wmo:fpst2:1,2018-10-01T05:24:00Z,28.9360,-95.2940,15.0,4.2,63.0,5.1,'11111222,11111222,11111222' 
NOS,ioos:station:wmo:fpst2:1,2018-10-01T05:30:00Z,28.9360,-95.2940,15.0,6.3,86.0,7.2,'11111222,11111222,11111222' 
NOS,ioos:station:wmo:fpst2:1,2018-10-01T05:36:00Z,28.9360,-95.2940,15.0,6.3,84.0,7.1,'11111222,11111222,11111222' 
NOS,ioos:station:wmo:fpst2:1,2018-10-01T05:42:00Z,28.9360,-95.2940,15.0,6.2,88.0,6.9,'11111222,11111222,11111222' 
NOS,ioos:station:wmo:fpst2:1,2018-10-01T05:48:00Z,28.9360,-95.2940,15.0,5.9,86.0,7.5,'11111222,11111222,11111222' 
NOS,ioos:station:wmo:fpst2:1,2018-10-01T05:54:00Z,28.9360,-95.2940,15.0,5.8,91.0,6.5,'11111222,11111222,11111222' 
NOS,ioos:station:wmo:fpst2:1,2018-10-01T06:00:00Z,28.9360,-95.2940,15.0,5.9,88.0,6.8,'11111222,11111222,11111222' 
NOS,ioos:station:wmo:fpst2:1,2018-10-01T06:06:00Z,28.9360,-95.2940,15.0,6.1,87.0,6.7,'11111222,11111222,11111222' 
NOS,ioos:station:wmo:fpst2:1,2018-10-01T06:12:00Z,28.9360,-95.2940,15.0,6.4,84.0,7.2,'11111222,11111222,11111222' 
NOS,ioos:station:wmo:fpst2:1,2018-10-01T06:18:00Z,28.9360,-95.2940,15.0,6.0,81.0,7.2,'11111222,11111222,11111222' 
NOS,ioos:station:wmo:fpst2:1,2018-10-01T06:24:00Z,28.9360,-95.2940,15.0,6.5,82.0,7.0,'11111222,11111222,11111222' 
NOS,ioos:station:wmo:fpst2:1,2018-10-01T06:30:00Z,28.9360,-95.2940,15.0,5.6,83.0,6.7,'11111222,11111222,11111222' 
NOS,ioos:station:wmo:fpst2:1,2018-10-01T06:36:00Z,28.9360,-95.2940,15.0,5.8,83.0,6.8,'11111222,11111222,11111222' 
NOS,ioos:station:wmo:fpst2:1,2018-10-01T06:42:00Z,28.9360,-95.2940,15.0,5.7,82.0,6.3,'11111222,11111222,11111222' 
NOS,ioos:station:wmo:fpst2:1,2018-10-01T06:48:00Z,28.9360,-95.2940,15.0,5.5,87.0,6.1,'11111222,11111222,11111222' 
NOS,ioos:station:wmo:fpst2:1,2018-10-01T06:54:00Z,28.9360,-95.2940,15.0,4.8,80.0,6.0,'11111222,11111222,11111222' 
NOS,ioos:station:wmo:fpst2:1,2018-10-01T07:00:00Z,28.9360,-95.2940,15.0,5.6,83.0,6.7,'11111222,11111222,11111222' 
NOS,ioos:station:wmo:fpst2:1,2018-10-01T07:06:00Z,28.9360,-95.2940,15.0,6.4,83.0,7.0,'11111222,11111222,11111222' 
NOS,ioos:station:wmo:fpst2:1,2018-10-01T07:12:00Z,28.9360,-95.2940,15.0,6.4,84.0,7.0,'11111222,11111222,11111222' 
NOS,ioos:station:wmo:fpst2:1,2018-10-01T07:18:00Z,28.9360,-95.2940,15.0,5.9,87.0,6.5,'11111222,11111222,11111222' 
NOS,ioos:station:wmo:fpst2:1,2018-10-01T07:24:00Z,28.9360,-95.2940,15.0,6.7,91.0,7.2,'11111222,11111222,11111222' 
NOS,ioos:station:wmo:fpst2:1,2018-10-01T07:30:00Z,28.9360,-95.2940,15.0,6.1,91.0,7.3,'11111222,11111222,11111222' 
NOS,ioos:station:wmo:fpst2:1,2018-10-01T07:36:00Z,28.9360,-95.2940,15.0,6.9,93.0,7.2,'11111222,11111222,11111222' 
NOS,ioos:station:wmo:fpst2:1,2018-10-01T07:42:00Z,28.9360,-95.2940,15.0,6.3,92.0,7.1,'11111222,11111222,11111222' 
NOS,ioos:station:wmo:fpst2:1,2018-10-01T07:48:00Z,28.9360,-95.2940,15.0,6.0,92.0,6.8,'11111222,11111222,11111222' 
NOS,ioos:station:wmo:fpst2:1,2018-10-01T07:54:00Z,28.9360,-95.2940,15.0,6.8,89.0,7.2,'11111222,11111222,11111222' 
NOS,ioos:station:wmo:fpst2:1,2018-10-01T08:00:00Z,28.9360,-95.2940,15.0,6.0,86.0,6.7,'11111222,11111222,11111222' 
NOS,ioos:station:wmo:fpst2:1,2018-10-01T08:06:00Z,28.9360,-95.2940,15.0,6.0,86.0,6.5,'11111222,11111222,11111222' 
NOS,ioos:station:wmo:fpst2:1,2018-10-01T08:12:00Z,28.9360,-95.2940,15.0,5.7,88.0,6.6,'11111222,11111222,11111222' 
NOS,ioos:station:wmo:fpst2:1,2018-10-01T08:18:00Z,28.9360,-95.2940,15.0,5.6,88.0,6.2,'11111222,11111222,11111222' 
NOS,ioos:station:wmo:fpst2:1,2018-10-01T08:24:00Z,28.9360,-95.2940,15.0,5.9,77.0,6.5,'11111222,11111222,11111222' 
NOS,ioos:station:wmo:fpst2:1,2018-10-01T08:30:00Z,28.9360,-95.2940,15.0,5.9,78.0,6.3,'11111222,11111222,11111222' 
NOS,ioos:station:wmo:fpst2:1,2018-10-01T08:36:00Z,28.9360,-95.2940,15.0,5.9,82.0,7.0,'11111222,11111222,11111222' 
NOS,ioos:station:wmo:fpst2:1,2018-10-01T08:42:00Z,28.9360,-95.2940,15.0,6.2,80.0,7.1,'11111222,11111222,11111222' 
NOS,ioos:station:wmo:fpst2:1,2018-10-01T08:48:00Z,28.9360,-95.2940,15.0,6.1,80.0,6.9,'11111222,11111222,11111222' 
NOS,ioos:station:wmo:fpst2:1,2018-10-01T08:54:00Z,28.9360,-95.2940,15.0,6.3,79.0,7.0,'11111222,11111222,11111222' 
NOS,ioos:station:wmo:fpst2:1,2018-10-01T09:00:00Z,28.9360,-95.2940,15.0,6.9,86.0,7.4,'11111222,11111222,11111222' 
NOS,ioos:station:wmo:fpst2:1,2018-10-01T09:06:00Z,28.9360,-95.2940,15.0,5.4,77.0,7.1,'11111222,11111222,11111222' 
NOS,ioos:station:wmo:fpst2:1,2018-10-01T09:12:00Z,28.9360,-95.2940,15.0,5.7,80.0,6.4,'11111222,11111222,11111222' 
NOS,ioos:station:wmo:fpst2:1,2018-10-01T09:18:00Z,28.9360,-95.2940,15.0,5.7,83.0,6.8,'11111222,11111222,11111222' 
NOS,ioos:station:wmo:fpst2:1,2018-10-01T09:24:00Z,28.9360,-95.2940,15.0,6.1,79.0,6.7,'11111222,11111222,11111222' 
NOS,ioos:station:wmo:fpst2:1,2018-10-01T09:30:00Z,28.9360,-95.2940,15.0,6.0,87.0,6.8,'11111222,11111222,11111222' 
NOS,ioos:station:wmo:fpst2:1,2018-10-01T09:36:00Z,28.9360,-95.2940,15.0,5.0,83.0,6.1,'11111222,11111222,11111222' 
NOS,ioos:station:wmo:fpst2:1,2018-10-01T09:42:00Z,28.9360,-95.2940,15.0,4.8,84.0,5.8,'11111222,11111222,11111222' 
NOS,ioos:station:wmo:fpst2:1,2018-10-01T09:48:00Z,28.9360,-95.2940,15.0,4.7,86.0,5.8,'11111222,11111222,11111222' 
NOS,ioos:station:wmo:fpst2:1,2018-10-01T09:54:00Z,28.9360,-95.2940,15.0,5.1,98.0,5.6,'11111222,11111222,11111222' 
NOS,ioos:station:wmo:fpst2:1,2018-10-01T10:00:00Z,28.9360,-95.2940,15.0,4.8,95.0,5.4,'11111222,11111222,11111222' 
NOS,ioos:station:wmo:fpst2:1,2018-10-01T10:06:00Z,28.9360,-95.2940,15.0,4.5,97.0,5.0,'11111222,11111222,11111222' 
NOS,ioos:station:wmo:fpst2:1,2018-10-01T10:12:00Z,28.9360,-95.2940,15.0,4.8,99.0,5.3,'11111222,11111222,11111222' 
NOS,ioos:station:wmo:fpst2:1,2018-10-01T10:18:00Z,28.9360,-95.2940,15.0,3.5,109.0,4.6,'11111222,11111222,11111222' 
NOS,ioos:station:wmo:fpst2:1,2018-10-01T10:24:00Z,28.9360,-95.2940,15.0,4.3,105.0,5.0,'11111222,11111222,11111222' 
NOS,ioos:station:wmo:fpst2:1,2018-10-01T10:30:00Z,28.9360,-95.2940,15.0,3.7,102.0,4.6,'11111222,11111222,11111222' 
NOS,ioos:station:wmo:fpst2:1,2018-10-01T10:36:00Z,28.9360,-95.2940,15.0,3.9,97.0,4.2,'11111222,11111222,11111222' 
NOS,ioos:station:wmo:fpst2:1,2018-10-01T10:42:00Z,28.9360,-95.2940,15.0,3.6,90.0,4.1,'11111222,11111222,11111222' 
NOS,ioos:station:wmo:fpst2:1,2018-10-01T10:48:00Z,28.9360,-95.2940,15.0,3.8,82.0,4.0,'11111222,11111222,11111222' 
NOS,ioos:station:wmo:fpst2:1,2018-10-01T10:54:00Z,28.9360,-95.2940,15.0,4.0,83.0,4.4,'11111222,11111222,11111222' 
NOS,ioos:station:wmo:fpst2:1,2018-10-01T11:00:00Z,28.9360,-95.2940,15.0,3.6,76.0,4.2,'11111222,11111222,11111222' 
NOS,ioos:station:wmo:fpst2:1,2018-10-01T11:06:00Z,28.9360,-95.2940,15.0,4.0,68.0,4.3,'11111222,11111222,11111222' 
NOS,ioos:station:wmo:fpst2:1,2018-10-01T11:12:00Z,28.9360,-95.2940,15.0,3.3,75.0,4.2,'11111222,11111222,11111222' 
NOS,ioos:station:wmo:fpst2:1,2018-10-01T11:18:00Z,28.9360,-95.2940,15.0,3.4,72.0,3.8,'11111222,11111222,11111222' 
NOS,ioos:station:wmo:fpst2:1,2018-10-01T11:24:00Z,28.9360,-95.2940,15.0,3.0,64.0,3.8,'11111222,11111222,11111222' 
NOS,ioos:station:wmo:fpst2:1,2018-10-01T11:30:00Z,28.9360,-95.2940,15.0,2.9,57.0,3.2,'11111222,11111222,11111222' 
NOS,ioos:station:wmo:fpst2:1,2018-10-01T11:36:00Z,28.9360,-95.2940,15.0,3.1,58.0,3.3,'11111222,11111222,11111222' 
NOS,ioos:station:wmo:fpst2:1,2018-10-01T11:42:00Z,28.9360,-95.2940,15.0,3.6,70.0,4.2,'11111222,11111222,11111222' 
NOS,ioos:station:wmo:fpst2:1,2018-10-01T11:48:00Z,28.9360,-95.2940,15.0,2.8,70.0,3.7,'11111222,11111222,11111222' 
NOS,ioos:station:wmo:fpst2:1,2018-10-01T11:54:00Z,28.9360,-95.2940,15.0,3.1,67.0,3.4,'11111222,11111222,11111222' 
NOS,ioos:station:wmo:fpst2:1,2018-10-01T12:00:00Z,28.9360,-95.2940,15.0,2.9,62.0,3.2,'11111222,11111222,11111222' 
NOS,ioos:station:wmo:fpst2:1,2018-10-01T12:06:00Z,28.9360,-95.2940,15.0,2.4,54.0,2.8,'11111222,11111222,11111222' 
NOS,ioos:station:wmo:fpst2:1,2018-10-01T12:12:00Z,28.9360,-95.2940,15.0,2.6,47.0,2.8,'11111222,11111222,11111222' 
NOS,ioos:station:wmo:fpst2:1,2018-10-01T12:18:00Z,28.9360,-95.2940,15.0,1.3,64.0,2.6,'11111222,11111222,11111222' 
NOS,ioos:station:wmo:fpst2:1,2018-10-01T12:24:00Z,28.9360,-95.2940,15.0,2.2,229.0,2.6,'11111222,11111222,11111222' 
NOS,ioos:station:wmo:fpst2:1,2018-10-01T12:30:00Z,28.9360,-95.2940,15.0,12.7,183.0,15.3,'11111222,11111222,11111222' 
NOS,ioos:station:wmo:fpst2:1,2018-10-01T12:36:00Z,28.9360,-95.2940,15.0,13.1,191.0,16.4,'11111222,11111222,11111222' 
NOS,ioos:station:wmo:fpst2:1,2018-10-01T12:42:00Z,28.9360,-95.2940,15.0,16.5,190.0,20.0,'11111222,11111222,11111222' 
NOS,ioos:station:wmo:fpst2:1,2018-10-01T12:48:00Z,28.9360,-95.2940,15.0,14.8,190.0,18.0,'11111222,11111222,11111222' 
NOS,ioos:station:wmo:fpst2:1,2018-10-01T12:54:00Z,28.9360,-95.2940,15.0,11.0,172.0,16.2,'11111222,11111222,11111222' 
NOS,ioos:station:wmo:fpst2:1,2018-10-01T13:00:00Z,28.9360,-95.2940,15.0,13.6,156.0,15.4,'11111222,11111222,11111222' 
NOS,ioos:station:wmo:fpst2:1,2018-10-01T13:06:00Z,28.9360,-95.2940,15.0,10.4,149.0,15.1,'11111222,11111222,11111222' 
NOS,ioos:station:wmo:fpst2:1,2018-10-01T13:12:00Z,28.9360,-95.2940,15.0,10.4,136.0,11.5,'11111222,11111222,11111222' 
NOS,ioos:station:wmo:fpst2:1,2018-10-01T13:18:00Z,28.9360,-95.2940,15.0,8.0,130.0,10.2,'11111222,11111222,11111222' 
NOS,ioos:station:wmo:fpst2:1,2018-10-01T13:24:00Z,28.9360,-95.2940,15.0,6.8,122.0,7.9,'11111222,11111222,11111222' 
NOS,ioos:station:wmo:fpst2:1,2018-10-01T13:30:00Z,28.9360,-95.2940,15.0,6.5,115.0,8.7,'11111222,11111222,11111222' 
NOS,ioos:station:wmo:fpst2:1,2018-10-01T13:36:00Z,28.9360,-95.2940,15.0,5.8,116.0,7.2,'11111222,11111222,11111222' 
NOS,ioos:station:wmo:fpst2:1,2018-10-01T13:42:00Z,28.9360,-95.2940,15.0,5.1,124.0,7.2,'11111222,11111222,11111222' 
NOS,ioos:station:wmo:fpst2:1,2018-10-01T13:48:00Z,28.9360,-95.2940,15.0,4.5,136.0,6.7,'11111222,11111222,11111222' 
NOS,ioos:station:wmo:fpst2:1,2018-10-01T13:54:00Z,28.9360,-95.2940,15.0,7.6,151.0,8.6,'11111222,11111222,11111222' 
NOS,ioos:station:wmo:fpst2:1,2018-10-01T14:00:00Z,28.9360,-95.2940,15.0,6.9,148.0,8.6,'11111222,11111222,11111222' 
NOS,ioos:station:wmo:fpst2:1,2018-10-01T14:06:00Z,28.9360,-95.2940,15.0,5.8,141.0,7.8,'11111222,11111222,11111222' 
NOS,ioos:station:wmo:fpst2:1,2018-10-01T14:12:00Z,28.9360,-95.2940,15.0,7.3,138.0,7.9,'11111222,11111222,11111222' 
NOS,ioos:station:wmo:fpst2:1,2018-10-01T14:18:00Z,28.9360,-95.2940,15.0,6.4,132.0,7.6,'11111222,11111222,11111222' 
NOS,ioos:station:wmo:fpst2:1,2018-10-01T14:24:00Z,28.9360,-95.2940,15.0,6.1,122.0,7.9,'11111222,11111222,11111222' 
NOS,ioos:station:wmo:fpst2:1,2018-10-01T14:30:00Z,28.9360,-95.2940,15.0,5.8,122.0,7.3,'11111222,11111222,11111222' 
NOS,ioos:station:wmo:fpst2:1,2018-10-01T14:36:00Z,28.9360,-95.2940,15.0,6.1,129.0,7.0,'11111222,11111222,11111222' 
NOS,ioos:station:wmo:fpst2:1,2018-10-01T14:42:00Z,28.9360,-95.2940,15.0,5.3,140.0,6.7,'11111222,11111222,11111222' 
NOS,ioos:station:wmo:fpst2:1,2018-10-01T14:48:00Z,28.9360,-95.2940,15.0,5.6,123.0,6.3,'11111222,11111222,11111222' 
NOS,ioos:station:wmo:fpst2:1,2018-10-01T14:54:00Z,28.9360,-95.2940,15.0,4.8,112.0,5.2,'11111222,11111222,11111222' 
NOS,ioos:station:wmo:fpst2:1,2018-10-01T15:00:00Z,28.9360,-95.2940,15.0,3.1,113.0,4.7,'11111222,11111222,11111222' 
NOS,ioos:station:wmo:fpst2:1,2018-10-01T15:06:00Z,28.9360,-95.2940,15.0,4.1,95.0,4.6,'11111222,11111222,11111222' 
NOS,ioos:station:wmo:fpst2:1,2018-10-01T15:12:00Z,28.9360,-95.2940,15.0,3.5,88.0,5.0,'11111222,11111222,11111222' 
NOS,ioos:station:wmo:fpst2:1,2018-10-01T15:18:00Z,28.9360,-95.2940,15.0,2.9,83.0,4.3,'11111222,11111222,11111222' 
NOS,ioos:station:wmo:fpst2:1,2018-10-01T15:24:00Z,28.9360,-95.2940,15.0,2.9,74.0,3.4,'11111222,11111222,11111222' 
NOS,ioos:station:wmo:fpst2:1,2018-10-01T15:30:00Z,28.9360,-95.2940,15.0,4.5,79.0,5.0,'11111222,11111222,11111222' 
NOS,ioos:station:wmo:fpst2:1,2018-10-01T15:36:00Z,28.9360,-95.2940,15.0,5.2,84.0,5.7,'11111222,11111222,11111222' 
NOS,ioos:station:wmo:fpst2:1,2018-10-01T15:42:00Z,28.9360,-95.2940,15.0,5.1,79.0,6.1,'11111222,11111222,11111222' 
NOS,ioos:station:wmo:fpst2:1,2018-10-01T15:48:00Z,28.9360,-95.2940,15.0,4.7,78.0,5.1,'11111222,11111222,11111222' 
NOS,ioos:station:wmo:fpst2:1,2018-10-01T15:54:00Z,28.9360,-95.2940,15.0,5.7,73.0,6.4,'11111222,11111222,11111222' 
NOS,ioos:station:wmo:fpst2:1,2018-10-01T16:00:00Z,28.9360,-95.2940,15.0,4.9,82.0,6.5,'11111222,11111222,11111222' 
NOS,ioos:station:wmo:fpst2:1,2018-10-01T16:06:00Z,28.9360,-95.2940,15.0,4.6,76.0,5.1,'11111222,11111222,11111222' 
NOS,ioos:station:wmo:fpst2:1,2018-10-01T16:12:00Z,28.9360,-95.2940,15.0,4.8,71.0,5.3,'11111222,11111222,11111222' 
NOS,ioos:station:wmo:fpst2:1,2018-10-01T16:18:00Z,28.9360,-95.2940,15.0,4.7,56.0,5.2,'11111222,11111222,11111222' 
NOS,ioos:station:wmo:fpst2:1,2018-10-01T16:24:00Z,28.9360,-95.2940,15.0,4.9,50.0,5.6,'11111222,11111222,11111222' 
NOS,ioos:station:wmo:fpst2:1,2018-10-01T16:30:00Z,28.9360,-95.2940,15.0,4.3,56.0,5.0,'11111222,11111222,11111222' 
NOS,ioos:station:wmo:fpst2:1,2018-10-01T16:36:00Z,28.9360,-95.2940,15.0,4.8,70.0,5.3,'11111222,11111222,11111222' 
NOS,ioos:station:wmo:fpst2:1,2018-10-01T16:42:00Z,28.9360,-95.2940,15.0,3.7,73.0,4.5,'11111222,11111222,11111222' 
NOS,ioos:station:wmo:fpst2:1,2018-10-01T16:48:00Z,28.9360,-95.2940,15.0,4.8,61.0,5.2,'11111222,11111222,11111222' 
NOS,ioos:station:wmo:fpst2:1,2018-10-01T16:54:00Z,28.9360,-95.2940,15.0,4.4,66.0,4.9,'11111222,11111222,11111222' 
NOS,ioos:station:wmo:fpst2:1,2018-10-01T17:00:00Z,28.9360,-95.2940,15.0,4.9,69.0,5.5,'11111222,11111222,11111222' 
NOS,ioos:station:wmo:fpst2:1,2018-10-01T17:06:00Z,28.9360,-95.2940,15.0,4.5,75.0,5.7,'11111222,11111222,11111222' 
NOS,ioos:station:wmo:fpst2:1,2018-10-01T17:12:00Z,28.9360,-95.2940,15.0,3.6,65.0,4.8,'11111222,11111222,11111222' 
NOS,ioos:station:wmo:fpst2:1,2018-10-01T17:18:00Z,28.9360,-95.2940,15.0,4.1,74.0,4.5,'11111222,11111222,11111222' 
NOS,ioos:station:wmo:fpst2:1,2018-10-01T17:24:00Z,28.9360,-95.2940,15.0,4.5,76.0,4.8,'11111222,11111222,11111222' 
NOS,ioos:station:wmo:fpst2:1,2018-10-01T17:30:00Z,28.9360,-95.2940,15.0,3.8,81.0,5.0,'11111222,11111222,11111222' 
NOS,ioos:station:wmo:fpst2:1,2018-10-01T17:36:00Z,28.9360,-95.2940,15.0,3.8,82.0,4.4,'11111222,11111222,11111222' 
NOS,ioos:station:wmo:fpst2:1,2018-10-01T17:42:00Z,28.9360,-95.2940,15.0,3.5,77.0,4.0,'11111222,11111222,11111222' 
NOS,ioos:station:wmo:fpst2:1,2018-10-01T17:48:00Z,28.9360,-95.2940,15.0,3.8,75.0,4.0,'11111222,11111222,11111222' 
NOS,ioos:station:wmo:fpst2:1,2018-10-01T17:54:00Z,28.9360,-95.2940,15.0,3.7,66.0,4.0,'11111222,11111222,11111222' 
NOS,ioos:station:wmo:fpst2:1,2018-10-01T18:00:00Z,28.9360,-95.2940,15.0,3.3,69.0,3.6,'11111222,11111222,11111222' 
NOS,ioos:station:wmo:fpst2:1,2018-10-01T18:06:00Z,28.9360,-95.2940,15.0,2.8,80.0,3.4,'11111222,11111222,11111222' 
NOS,ioos:station:wmo:fpst2:1,2018-10-01T18:12:00Z,28.9360,-95.2940,15.0,3.0,82.0,3.3,'11111222,11111222,11111222' 
NOS,ioos:station:wmo:fpst2:1,2018-10-01T18:18:00Z,28.9360,-95.2940,15.0,3.7,78.0,4.1,'11111222,11111222,11111222' 
NOS,ioos:station:wmo:fpst2:1,2018-10-01T18:24:00Z,28.9360,-95.2940,15.0,3.4,75.0,4.1,'11111222,11111222,11111222' 
NOS,ioos:station:wmo:fpst2:1,2018-10-01T18:30:00Z,28.9360,-95.2940,15.0,3.6,64.0,4.2,'11111222,11111222,11111222' 
NOS,ioos:station:wmo:fpst2:1,2018-10-01T18:36:00Z,28.9360,-95.2940,15.0,3.7,66.0,4.8,'11111222,11111222,11111222' 
NOS,ioos:station:wmo:fpst2:1,2018-10-01T18:42:00Z,28.9360,-95.2940,15.0,4.0,70.0,4.8,'11111222,11111222,11111222' 
NOS,ioos:station:wmo:fpst2:1,2018-10-01T18:48:00Z,28.9360,-95.2940,15.0,4.5,71.0,5.2,'11111222,11111222,11111222' 
NOS,ioos:station:wmo:fpst2:1,2018-10-01T18:54:00Z,28.9360,-95.2940,15.0,4.5,76.0,5.1,'11111222,11111222,11111222' 
NOS,ioos:station:wmo:fpst2:1,2018-10-01T19:00:00Z,28.9360,-95.2940,15.0,4.5,84.0,5.3,'11111222,11111222,11111222' 
NOS,ioos:station:wmo:fpst2:1,2018-10-01T19:06:00Z,28.9360,-95.2940,15.0,4.0,83.0,5.2,'11111222,11111222,11111222' 
NOS,ioos:station:wmo:fpst2:1,2018-10-01T19:12:00Z,28.9360,-95.2940,15.0,4.1,90.0,5.0,'11111222,11111222,11111222' 
NOS,ioos:station:wmo:fpst2:1,2018-10-01T19:18:00Z,28.9360,-95.2940,15.0,3.8,87.0,4.6,'11111222,11111222,11111222' 
NOS,ioos:station:wmo:fpst2:1,2018-10-01T19:24:00Z,28.9360,-95.2940,15.0,4.2,92.0,5.0,'11111222,11111222,11111222' 
NOS,ioos:station:wmo:fpst2:1,2018-10-01T19:30:00Z,28.9360,-95.2940,15.0,4.5,101.0,5.1,'11111222,11111222,11111222' 
NOS,ioos:station:wmo:fpst2:1,2018-10-01T19:36:00Z,28.9360,-95.2940,15.0,3.9,96.0,5.0,'11111222,11111222,11111222' 
NOS,ioos:station:wmo:fpst2:1,2018-10-01T19:42:00Z,28.9360,-95.2940,15.0,3.9,90.0,4.3,'11111222,11111222,11111222' 
NOS,ioos:station:wmo:fpst2:1,2018-10-01T19:48:00Z,28.9360,-95.2940,15.0,3.6,93.0,4.4,'11111222,11111222,11111222' 
NOS,ioos:station:wmo:fpst2:1,2018-10-01T19:54:00Z,28.9360,-95.2940,15.0,3.2,85.0,3.9,'11111222,11111222,11111222' 
NOS,ioos:station:wmo:fpst2:1,2018-10-01T20:00:00Z,28.9360,-95.2940,15.0,3.6,85.0,4.3,'11111222,11111222,11111222' 
NOS,ioos:station:wmo:fpst2:1,2018-10-01T20:06:00Z,28.9360,-95.2940,15.0,4.1,94.0,4.8,'11111222,11111222,11111222' 
NOS,ioos:station:wmo:fpst2:1,2018-10-01T20:12:00Z,28.9360,-95.2940,15.0,3.9,88.0,5.0,'11111222,11111222,11111222' 
NOS,ioos:station:wmo:fpst2:1,2018-10-01T20:18:00Z,28.9360,-95.2940,15.0,4.0,83.0,4.6,'11111222,11111222,11111222' 
NOS,ioos:station:wmo:fpst2:1,2018-10-01T20:24:00Z,28.9360,-95.2940,15.0,4.4,83.0,5.0,'11111222,11111222,11111222' 
NOS,ioos:station:wmo:fpst2:1,2018-10-01T20:30:00Z,28.9360,-95.2940,15.0,4.5,77.0,5.0,'11111222,11111222,11111222' 
NOS,ioos:station:wmo:fpst2:1,2018-10-01T20:36:00Z,28.9360,-95.2940,15.0,5.2,71.0,6.1,'11111222,11111222,11111222' 